Regional Weather Roundup
Issued by NWS

Home | Current Version | Previous Version | Text Only | Print | Product List | Glossary On
Versions: 1 2 3 4 5 6 7 8 9 10 11 12 13 14 15 16 17 18 19 20 21 22 23 24 25 26 27 28 29 30 31 32 33 34 35 36 37 38 39 40 41 42 43 44 45 46 47 48 49 50
000
ASUS46 KLOX 021013
RWRCA

SOUTHERN CALIFORNIA WEATHER ROUNDUP
NATIONAL WEATHER SERVICE OXNARD CALIFORNIA
300 AM PDT SUN AUG 02 2015

NOTE: "FAIR" INDICATES FEW OR NO CLOUDS BELOW 12,000 FEET WITH NO
SIGNIFICANT WEATHER AND/OR OBSTRUCTIONS TO VISIBILITY.

  -  STATIONS PRECEEDED BY AN ASTERISK (*) ARE NOT NWS OR FAA
     STATIONS AND ARE NOT SUBJECT TO NWS AND FAA QUALITY CONTROL.

CAZ041-042-087-021100-
LA AND ORANGE COUNTY COASTAL AREAS


CITY           SKY/WX    TMP DP  RH WIND       PRES   REMARKS
L.A. DOWNTOWN  CLEAR     68  63  84 CALM      29.89S
L.A. AIRPORT   CLEAR     68  62  81 CALM      29.89F
LONG BEACH     CLEAR     70  65  84 CALM      29.89S

CITY           SKY/WX    TMP DP  RH WIND       PRES   REMARKS
AVALON           N/A     63 N/A N/A SE2         N/A
FULLERTON      CLOUDY    70  65  84 CALM      29.89S
*GETTY CENTER    N/A     61  61 100 NE3         N/A
HAWTHORNE      CLEAR     70  63  78 CALM      29.89F
*LOS ALAMITOS  FAIR      68  66  94 S2        29.89S
*REDONDO BEACH   N/A     64  60  85 CALM      29.89F
SANTA ANA      MOCLDY    68  64  87 SW3       29.89F
STA MONICA APT CLOUDY    69  64  84 CALM      29.90S
*STA MON PIER    N/A     70  65  85 CALM      29.88F

$$

CAZ547-548-048-021100-
LA COUNTY VALLEYS AND INLAND EMPIRE


CITY           SKY/WX    TMP DP  RH WIND       PRES   REMARKS
BURBANK        CLEAR     69  61  75 CALM      29.90F
VAN NUYS       CLEAR     68  61  78 SE3       29.90F

CITY           SKY/WX    TMP DP  RH WIND       PRES   REMARKS
CORONA AIRPORT SUNNY     65  63  93 CALM      29.91F
CHINO          CLEAR     68  63  84 CALM      29.91F
MARCH AFB      CLEAR     67  62  84 CALM      29.92F
*NORTHRIDGE      N/A     66  59  77 CALM        N/A
ONTARIO        CLEAR     67  62  84 CALM      29.91F
*PASADENA        N/A     68  64  88 E2          N/A
RIVERSIDE      CLEAR     70  62  76 CALM      29.91F
SAN BERNARDINO NOT AVBL
*WHITEMAN AP   NOT AVBL
*WOODLAND HILL   N/A     64  59  82 SE1         N/A

$$

CAZ054-055-021100-
LA AND SAN BERNARDINO COUNTY MOUNTAINS


CITY           SKY/WX    TMP DP  RH WIND       PRES   REMARKS
*BIG BEAR AIRP SUNNY     48  34  57 CALM      30.26S
SANDBERG       CLEAR     69  48  47 N7        30.10F

$$

CAZ028-029-059-060-099-021100-
ANTELOPE VALLEY AND SURROUNDING AREAS


CITY           SKY/WX    TMP DP  RH WIND       PRES   REMARKS
LANCASTER      CLEAR     76  50  40 W10       29.95F
PALMDALE       CLEAR     73  49  42 S6        29.97F

CITY           SKY/WX    TMP DP  RH WIND       PRES   REMARKS
29 PALMS       CLEAR     82  46  28 W12       29.96R
BARSTOW/DAGGET CLEAR     81  43  26 W9        29.90F
BISHOP         PTCLDY    59  55  87 N6        30.09F
CHINA LAKE     PTCLDY    79  49  34 CALM      29.93S
EDWARDS AFB    CLEAR     71  50  46 S2        29.92F
MOJAVE         CLEAR     79  48  34 NW8       29.96F
NEEDLES        CLEAR     85  59  41 W8        29.81S
VICTORVILLE    CLEAR     70  48  46 S8        29.99S

$$

CAZ039-040-021100-
VENTURA AND SANTA BARBARA COUNTY COAST


CITY           SKY/WX    TMP DP  RH WIND       PRES   REMARKS
CAMARILLO      CLEAR     64  59  83 W3        29.88S
OXNARD AIRPORT CLEAR     64  59  83 NE3       29.88S
*POINT MUGU    CLEAR     63  59  87 N5        29.89S FOG
SBA APT/GOLETA CLEAR     68  63  84 NE6       29.86F
*SANTA BARBARA   N/A     68  61  78 SW3       29.94F
*VENTURA         N/A     64  58  83 CALM      29.50S

$$

CAZ044-045-021100-
VENTURA COUNTY VALLEYS


CITY           SKY/WX    TMP DP  RH WIND       PRES   REMARKS
*SIMI VALLEY     N/A     64  60  86 CALM      29.83S
*OJAI            N/A     59  56  89 CALM      29.82S
*FILLMORE        N/A     62  58  86 SW3       29.78F

$$

CAZ053-021100-
VENTURA COUNTY MOUNTAINS


CITY           SKY/WX    TMP DP  RH WIND       PRES   REMARKS

$$

CAZ034-035-036-021100-
CENTRAL COAST AND SANTA YNEZ VALLEY


CITY           SKY/WX    TMP DP  RH WIND       PRES   REMARKS
SAN LUIS OBISP CLOUDY    64  59  83 NW6       29.94S
SANTA MARIA    CLOUDY    63  61  93 NW8       29.94F

CITY           SKY/WX    TMP DP  RH WIND       PRES   REMARKS
*CAL POLY SLO    N/A    N/A N/A N/A S3          N/A
*LOMPOC        CLOUDY    61  54  77 CALM      29.95F
*PISMO BEACH     N/A     63  60  90 CALM      29.94F
*SANTA YNEZ    MOCLDY    57  54  88 SW3       29.94F

$$

CAZ037-038-051-021100-
SAN LUIS OBISPO COUNTY INTERIOR AND CUYAMA VALLEY


CITY           SKY/WX    TMP DP  RH WIND       PRES   REMARKS
*CUYAMA          N/A     65  51  60 SE1       29.85F
PASO ROBLES    CLEAR     62  57  83 NW6       29.94S

$$

CAZ032-033-061-021100-
SOUTHERN DESERTS


CITY           SKY/WX    TMP DP  RH WIND       PRES   REMARKS
BLYTHE         CLEAR     89  58  34 SW3       29.76S
IMPERIAL       CLEAR     85  44  23 NW5       29.71F
PALM SPRINGS   CLEAR     87  58  37 NW3       29.78F
THERMAL        CLEAR     87  58  37 NW5       29.71F

$$

ELSEWHERE ACROSS THE WESTERN UNITED STATES AND MEXICO


CITY           SKY/WX    TMP DP  RH WIND       PRES   REMARKS
DENVER, CO     MOCLDY    68  51  54 SW8       30.08S
GRAND CANYON,  CLOUDY    59  54  83 CALM      30.22S
HONOLULU, HI   PTCLDY    81  68  65 NE6       29.94S
KAHULUI, MAUI  CLOUDY    81  68  65 NE14      29.96S
LAKE TAHOE, CA CLOUDY    61  48  62 CALM      30.21S
LAS VEGAS, NV  PTCLDY    79  55  43 SW6       29.88R
MAMMOTH LAKES, FAIR      50  46  87 S3        30.27R
MEXICO CITY, M MOCLDY    61  50  67 N5        30.28F
PHOENIX, AZ    PTCLDY    88  64  44 SE7       29.80S
PORTLAND, OR   PTCLDY    71  52  50 NW5       29.88R
RENO, NV       MOCLDY    73  49  42 CALM      30.07S
SALT LAKE CITY PTCLDY    70  43  37 SE3       29.98R
SAN DIEGO, CA  MOCLDY    70  62  76 CALM      29.90F
SAN FRANCISCO, CLOUDY    63  57  81 SW7       29.96S
SAN JOSE, CA   CLOUDY    64  58  80 NW7       29.96R
SEATTLE, WA    CLEAR     71  50  47 NE14      29.93R
TIJUANA, MEX   CLOUDY    68  59  73 CALM      29.93F

$$

STATION/POSITION TIME  TEMP    WIND        PRES    VSBY  WAVE
                       AIR SEA DIR/SP/G                  HT/PER
                 (UTC) (F)     (DEG/KT/KT) (MB)    (MI)  (FT/S)
POINT ARGUELLO B NOT AVBL
WEST SANTA BARBA 0950   63 63  320/ 23/ 27 1011.6S         5/ 5
POINT CONCEPTION NOT AVBL
EAST SANTA BARBA 1000   68 69   60/  4/  4 1011.5F
SANTA MONICA BAY 0950   69 72  140/  4/  4 1011.7F         3/14



USA.gov is the U.S. government's official web portal to all federal, state and local government web resources and services.